TIME,DELAY(SENSOR),PRES,OXYGEN,RAWTEMP,T(OPTODE),TCPHASE,FLUOR,BETA(BETA700),BETA(BETA412),BETA(BETA440),CDOM,C(CSC),ED(ED412.40),ED(ED444.00),ED(ED489.70),ED(ED554.30),LU(LU411.80),LU(LU443.40),LU(LU489.60),LU(LU554.10),COMP,TILTX,TILTY,CHECK
1373342964,5808,819.3900146484375000,44.9045600891113300,660.6785278320312000,4.6056327819824220,54.2786407470703100,52,102,86,79,79,15419,2147757019,2147426550,2148011867,2147873398,2147641810,2147057334,2148255826,2147195072,3079,4,13,44443
1373346561,5807,904.4099731445312000,49.0051383972168000,668.7545166015625000,4.3393340110778810,53.7919998168945300,52,97,88,78,80,15420,2147753782,2147426715,2148012635,2147873216,2147644224,2147055497,2148253065,2147196187,345,4,13,17331
1373350161,5811,915.1500244140625000,49.6237297058105500,671.1798095703125000,4.2592158317565920,53.7397804260253900,53,99,90,78,79,15419,2147756379,2147427337,2148011355,2147876370,2147640064,2147047387,2148256192,2147200530,106,4,13,1913
1373353761,5808,935.4600219726562000,50.7644615173339840,673.6102905273438000,4.1788620948791500,53.6094703674316400,52,99,87,78,79,15423,2147754550,2147425280,2148013924,2147874614,2147643410,2147053961,2148253741,2147195008,3062,4,13,17625
1373357361,5810,945.4899902343750000,51.0449104309082000,673.5526733398438000,4.1807651519775390,53.5718994140625000,53,105,87,79,79,15421,2147752448,2147426505,2148014336,2147873398,2147644973,2147049956,2148261595,2147200320,258,4,13,35135
1373360961,5806,935.3400268554688000,52.6494293212890600,673.6179199218750000,4.1786122322082520,53.3512382507324200,53,99,84,80,79,15416,2147757257,2147423981,2148011474,2147872658,2147645092,2147049874,2148255488,2147195858,3582,4,13,51812
1373364561,5805,971.4099731445312000,53.9028396606445300,676.2739868164062000,4.0907168388366700,53.2191314697265600,52,98,85,79,79,15401,2147754276,2147428288,2148012059,2147876013,2147644434,2147046857,2148263963,2147196013,178,4,13,30289
1373368161,5806,967.2899780273438000,53.6114501953125000,677.0584716796875000,4.0647468566894530,53.2695388793945300,52,97,86,78,80,15422,2147755154,2147424457,2148011556,2147877330,2147645814,2147048521,2148259181,2147195693,990,4,13,7033
1373371761,5810,978.0900268554688000,53.4130706787109400,676.0007934570312000,4.0997638702392580,53.2844810485839840,52,96,84,79,79,15423,2147757440,2147427355,2148012845,2147873590,2147646445,2147047478,2148262326,2147192960,141,4,13,41063
1373375361,5808,977.9699707031250000,52.7723999023437500,675.3759155273438000,4.1204447746276855,53.3605117797851560,53,97,88,80,79,15421,2147753517,2147423241,2148014720,2147874861,2147642880,2147052498,2148254482,2147194322,96,4,13,41227
1373378961,5810,970.4799804687500000,53.5767593383789060,676.9293212890625000,4.0690231323242190,53.2753105163574200,53,98,86,78,80,15422,2147755355,2147423606,2148013293,2147873106,2147643264,2147045796,2148256850,2147195017,2651,3,13,103
1373382561,5806,970.6599731445312000,53.7560997009277340,677.3430786132812000,4.0553188323974610,53.2581214904785160,53,103,89,92,80,15417,2147755136,2147421476,2148013010,2147876342,2147644187,2147052717,2148251858,2147194678,3024,3,13,20725
1373386161,5811,979.1699829101562000,53.6065101623535160,677.0576782226562000,4.0647721290588380,53.2738914489746100,53,98,84,78,80,15422,2147756187,2147423542,2148013851,2147871378,2147643885,2147049216,2148260699,2147196214,3246,3,13,51535
1373389761,5804,982.8200073242188000,53.2305488586425800,675.4407958984375000,4.1182990074157715,53.2972717285156250,52,96,85,79,80,15421,2147755757,2147425024,2148013641,2147875648,2147641865,2147050331,2148262912,2147194002,3558,4,13,14890
1373393361,5806,984.4799804687500000,53.2354393005371100,675.4564819335938000,4.1177811622619630,53.2982101440429700,52,96,83,79,78,15420,2147754843,2147425874,2148011748,2147875483,2147643593,2147051648,2148262774,2147199881,148,3,13,30388
1373396961,5810,986.2899780273438000,52.6458816528320300,675.0692749023438000,4.1305937767028810,53.3751792907714840,53,99,86,79,78,15423,2147756864,2147424521,2148010093,2147874669,2147645668,2147050486,2148262253,2147195309,48,4,13,26274
1373400561,5810,982.4299926757812000,52.4103889465332000,675.8475952148438000,4.1048359870910645,53.4183082580566400,53,96,83,78,80,15418,2147757248,2147426450,2148013522,2147873490,2147643072,2147050523,2148257225,2147199616,91,4,13,17906
1373404161,5809,986.7000122070312000,53.2136497497558600,675.4733886718750000,4.1172180175781250,53.3005981445312500,53,101,88,79,79,15419,2147755483,2147422253,2148014528,2147872137,2147638619,2147054189,2148261604,2147196580,3523,4,13,53167
1373407761,5810,980.1099853515625000,52.8883285522460940,675.7282104492188000,4.1087861061096190,53.3495101928710940,53,99,86,79,81,15418,2147757531,2147423360,2148011090,2147876324,2147639780,2147044196,2148260598,2147199003,527,4,13,34530
1373411361,5808,977.7199707031250000,53.1344604492187500,675.9526977539062000,4.1013550758361820,53.3207893371582000,52,116,83,78,80,15418,2147755913,2147426322,2148011766,2147874971,2147640027,2147050276,2148258907,2147193901,3522,3,13,18169
1373414961,5810,982.3800048828125000,53.1198616027832000,675.8776855468750000,4.1038398742675780,53.3214988708496100,53,98,86,79,79,15420,2147756077,2147424210,2148014674,2147873417,2147640393,2147048603,2148258596,2147196571,512,4,13,3905
1373418561,5808,982.9400024414062000,53.0624809265136700,675.3621215820312000,4.1209049224853520,53.3241004943847660,52,99,86,79,79,15419,2147754569,2147424777,2148013403,2147875318,2147641252,2147049353,2148262217,2147195437,3414,3,13,65026
1373422161,5808,982.1699829101562000,52.9978599548339840,675.9326171875000000,4.1020221710205080,53.3351402282714840,53,98,85,77,79,15420,2147757677,2147426002,2148014153,2147873161,2147641472,2147055350,2148259913,2147193801,3436,3,13,2871
1373425761,5807,983.5900268554688000,53.2536697387695300,675.8474731445312000,4.1048388481140140,53.3002510070800800,53,98,84,79,78,15417,2147755730,2147425673,2148013595,2147876498,2147640192,2147052864,2148262592,2147198500,487,4,13,6734
1373429361,5811,979.3400268554688000,53.0776100158691400,676.6336059570312000,4.0788149833679200,53.3355293273925800,52,99,87,78,79,15419,2147756297,2147424722,2148014573,2147876306,2147643446,2147054912,2148260425,2147199552,1359,4,13,27842
1373432961,5807,991.5200195312500000,52.6612091064453100,676.2844848632812000,4.0903701782226560,53.3873710632324200,53,98,85,79,80,15417,2147755437,2147424841,2148014445,2147872374,2147642221,2147054500,2148259163,2147199286,573,4,13,35436
1373436561,5808,985.7899780273438000,52.9837684631347660,676.8543701171875000,4.0715050697326660,53.3523788452148440,52,96,88,78,79,15416,2147755437,2147427081,2148012160,2147875858,2147640640,2147051117,2148260690,2147197184,10,4,13,7303
1373440161,5808,987.1699829101562000,52.9899711608886700,677.2991943359375000,4.0567741394042970,53.3567695617675800,52,99,84,76,80,15417,2147756032,2147426203,2148014052,2147874422,2147637001,2147052169,2148254674,2147193115,394,3,13,18858
1373443761,5810,992.6099853515625000,53.1435394287109400,675.9050292968750000,4.1029338836669920,53.3206291198730500,53,97,85,78,79,15415,2147754916,2147427245,2148015158,2147875099,2147643145,2147050797,2148258121,2147197440,3376,4,13,6346
1373447361,5811,980.4500122070312000,52.9181404113769500,676.8218994140625000,4.0725779533386230,53.3558883666992200,52,102,86,79,79,15415,2147759789,2147425782,2148015122,2147873316,2147645677,2147053449,2148258066,2147199542,3412,3,13,30994
1373450961,5805,985.9099731445312000,53.1705894470214840,677.3447875976562000,4.0552620887756350,53.3329505920410160,52,102,85,78,80,15413,2147757412,2147427721,2148014875,2147873225,2147642715,2147051236,2148259620,2147196818,3579,4,13,9375
1373454561,5808,987.8099975585938000,52.9772682189941400,677.3109130859375000,4.0563869476318360,53.3580894470214840,52,104,88,77,80,15416,2147756726,2147426541,2148014345,2147872164,2147642788,2147050340,2148257371,2147197714,95,4,13,5992
1373458161,5808,988.1900024414062000,52.1829605102539060,677.0349731445312000,4.0655231475830080,53.4622497558593750,52,98,86,79,78,15413,2147757677,2147426166,2148011291,2147873078,2147640265,2147051401,2148256987,2147198043,466,3,13,51702
1373461761,5806,986.2500000000000000,52.9822387695312500,677.2493286132812000,4.0584259033203125,53.3551216125488300,53,96,85,79,80,15414,2147756946,2147425472,2148012992,2147874450,2147647744,2147053696,2148261988,2147194733,3562,4,13,11762
1373465361,5808,987.1799926757812000,52.4360504150390600,677.2866821289062000,4.0571880340576170,53.4304084777832000,52,97,81,80,77,15413,2147758125,2147423954,2148012269,2147873590,2147641700,2147054912,2148261449,2147195693,3502,3,13,27903
1373468961,5812,986.8599853515625000,52.4481506347656250,677.2166748046875000,4.0595049858093260,53.4257316589355500,52,96,88,79,79,15413,2147757074,2147424786,2148012891,2147873664,2147642541,2147050486,2148259986,2147196370,15,4,13,39182
1373472561,5807,989.0599975585938000,52.8392906188964840,677.2105102539062000,4.0597109794616700,53.3745994567871100,51,97,87,80,80,15410,2147757485,2147425371,2148014884,2147875401,2147642825,2147052379,2148255652,2147195894,3077,3,13,33798
1373476161,5810,987.6099853515625000,53.3417205810546900,677.0142822265625000,4.0662097930908200,53.3084297180175800,52,98,91,79,80,15413,2147762157,2147428086,2148013376,2147873773,2147642093,2147047652,2148256905,2147199204,504,4,13,7085
1373479761,5810,988.9299926757812000,52.7397994995117200,675.0490722656250000,4.1312599182128910,53.3602104187011700,52,98,86,78,79,15407,2147755638,2147421888,2148013888,2147873856,2147641435,2147046299,2148254811,2147196342,363,4,13,19624
1373483361,5811,986.3099975585938000,52.8222503662109400,675.8510131835938000,4.1047229766845700,53.3575401306152340,52,99,89,78,79,15411,2147759954,2147424173,2148012672,2147874130,2147642834,2147054555,2148261046,2147194624,48,4,13,342
1373486961,5808,984.2199707031250000,53.0737190246582000,677.2973022460938000,4.0568370819091800,53.3476181030273440,51,142,93,80,80,15407,2147758610,2147426788,2148014427,2147875163,2147642779,2147048768,2148260114,2147195428,567,4,13,50540
1373487055,5808,984.4099731445312000,53.0198516845703100,677.2647705078125000,4.0579152107238770,53.3521194458007800,53,97,84,79,79,15408,2147756361,2147422720,2148013302,2147874194,2147640704,2147049920,2148255131,2147195044,309,4,13,871
